1532116800.54,30833,19.69,74078.8,5.17,1.89,1.51,0,*70
1532116801.77,30834,19.69,74082.3,5.15,1.71,1.37,0,*72
1532116803.01,30835,19.69,74082.0,5.17,1.67,1.43,0,*75
1532116804.24,30836,19.69,74082.3,5.15,1.59,1.37,0,*7A
1532116805.49,30837,19.69,74080.8,5.17,1.51,0.91,0,*4C
1532116806.74,30838,19.69,74084.0,5.17,1.17,0.63,0,*4C
1532116807.96,30839,19.69,74080.0,5.15,0.79,0.41,0,*76
1532116809.19,30840,19.69,74080.5,5.17,0.95,0.41,0,*78
1532116810.44,30841,19.69,74080.3,5.17,1.29,0.17,0,*4C
1532116811.65,30842,19.69,74084.0,5.17,1.05,-0.45,0,*6B
1532116812.85,30843,19.69,74080.3,5.19,0.79,-0.69,0,*50
1532116814.05,30844,19.69,74082.0,5.19,0.63,-0.33,0,*53
1532116815.25,30845,19.69,74080.8,5.19,0.67,0.33,0,*7B
1532116816.48,30846,19.69,74080.8,5.21,0.95,0.95,0,*72
1532116817.69,30847,19.69,74082.5,5.19,1.37,1.41,0,*79
1532116818.93,30848,19.69,74076.8,5.21,1.71,1.67,0,*7B
1532116820.16,30849,19.69,74078.8,5.19,2.01,1.37,0,*70
1532116821.36,30850,19.69,74078.3,5.19,2.13,1.01,0,*7E
1532116822.59,30851,19.69,74080.3,5.21,2.17,1.05,0,*74
1532116823.78,30852,19.69,74082.8,5.19,2.27,0.95,0,*47
1532116825.02,30853,19.69,74082.0,5.21,2.21,0.55,0,*47
1532116826.27,30854,19.69,74082.0,5.21,2.05,0.47,0,*45
1532116827.51,30855,19.69,74082.8,5.21,2.05,0.55,0,*47
1532116828.76,30856,19.69,74082.3,5.21,2.05,0.47,0,*47
1532116829.97,30857,19.69,74082.5,5.21,1.83,0.37,0,*4C
1532116831.17,30858,19.69,74084.5,5.19,1.63,0.09,0,*7B
1532116832.41,30859,19.69,74086.8,5.21,1.33,-0.15,0,*64
1532116833.64,30860,19.69,74084.5,5.21,1.09,-0.19,0,*6B
1532116834.88,30861,19.69,74082.0,5.21,1.09,-0.15,0,*66
1532116836.1,30862,19.69,74084.5,5.21,1.09,-0.29,0,*6A
1532116837.31,30863,19.69,74084.3,5.21,1.05,-0.41,0,*69
1532116838.54,30864,19.69,74084.5,5.21,0.87,-0.49,0,*5D
1532116839.76,30865,19.69,74086.0,5.21,0.87,-0.37,0,*55
1532116840.95,30866,19.69,74080.5,5.19,1.01,-0.15,0,*62
1532116842.18,30867,19.69,74086.0,5.23,1.21,0.13,0,*43
1532116843.37,30868,19.69,74084.8,5.23,1.41,0.21,0,*4B
1532116844.59,30869,19.69,74080.3,5.23,1.47,0.33,0,*4F
1532116845.8,30870,19.69,74084.8,5.23,1.59,0.33,0,*48
1532116847.02,30871,19.69,74084.3,5.23,1.67,0.37,0,*40
1532116848.24,30872,19.69,74084.5,5.23,1.71,0.37,0,*44
1532116849.46,30873,19.69,74082.8,5.23,1.71,0.13,0,*43
1532116850.67,30874,19.69,74084.5,5.25,1.71,-0.15,0,*69
1532116851.9,30875,19.69,74082.5,5.23,1.55,-0.27,0,*69
1532116853.12,30876,19.69,74084.8,5.23,1.71,0.13,0,*46
1532116854.34,30877,19.69,74080.5,5.25,1.85,0.41,0,*4D
1532116855.57,30878,19.69,74082.8,5.25,1.97,0.59,0,*48
1532116856.78,30879,19.69,74084.8,5.23,2.13,0.67,0,*4D
1532116858.01,30880,19.69,74082.5,5.23,2.17,0.59,0,*42
1532116859.23,30881,19.69,74086.5,5.23,2.17,0.33,0,*4F
1532116860.43,30882,19.69,74084.0,5.23,2.27,0.13,0,*4D
1532116861.59,30883,19.69,74084.3,5.23,2.27,0.01,0,*7F
1532116862.8,30884,19.69,74086.0,5.25,2.31,-0.27,0,*60
1532116864.0,30885,19.69,74084.8,5.25,2.25,-0.61,0,*66
1532116865.23,30886,19.69,74084.3,5.25,2.17,-1.13,0,*50
1532116866.44,30887,19.69,74084.8,5.23,1.97,-1.51,0,*5A
1532116867.64,30888,19.69,74084.8,5.25,1.83,-1.95,0,*5E
1532116868.87,30889,19.69,74084.3,5.25,1.71,-1.95,0,*52
1532116870.11,30890,19.69,74084.5,5.25,1.47,-1.99,0,*53
1532116871.35,30891,19.69,74086.8,5.25,1.25,-1.99,0,*56
1532116872.57,30892,19.69,74084.0,5.25,1.13,-1.75,0,*52
1532116873.76,30893,19.69,74086.0,5.25,1.01,-1.67,0,*53
1532116875.0,30894,19.69,74084.0,5.25,0.91,-1.99,0,*6D
1532116876.2,30895,19.69,74084.0,5.25,0.63,-2.95,0,*6E
1532116877.39,30896,19.69,74084.0,5.25,0.29,-3.19,0,*66
1532116878.59,30897,19.69,74082.5,5.25,0.13,-2.83,0,*6C
1532116879.81,30898,19.69,74086.0,5.25,0.25,-2.59,0,*61
1532116881.01,30899,19.69,74086.3,5.25,0.41,-3.11,0,*6F
1532116882.21,30900,19.69,74086.8,5.25,0.47,-4.09,0,*66
1532116883.44,30901,19.69,74088.3,5.25,0.25,-5.61,0,*6C
1532116884.65,30902,19.69,74084.0,5.25,-0.37,-7.01,0,*45
1532116885.87,30903,19.69,74084.5,5.25,-1.13,-8.97,0,*73
1532116887.12,30904,19.69,74086.5,5.25,-2.07,-10.41,0,*40
1532116888.34,30905,19.69,74084.5,5.25,-2.95,-11.59,0,*42
1532116889.59,30906,19.69,74086.5,5.23,-3.63,-11.93,0,*49
1532116890.79,30907,19.69,74086.3,5.25,-4.09,-12.39,0,*46
1532116891.97,30908,19.69,74086.0,5.23,-4.45,-13.11,0,*4C
1532116893.19,30909,19.69,74082.5,5.25,-5.03,-13.65,0,*4B
1532116894.38,30910,19.69,74086.8,5.25,-5.51,-13.93,0,*4D
1532116895.6,30911,19.69,74086.8,5.23,-5.97,-14.05,0,*48
1532116896.79,30912,19.69,74084.8,5.25,-6.35,-14.11,0,*43
1532116898.01,30913,19.69,74086.0,5.25,-6.59,-14.05,0,*4D
1532116899.23,30914,19.69,74084.8,5.23,-6.89,-14.05,0,*41
1532116900.46,30915,19.69,74086.0,5.23,-7.05,-13.83,0,*4C
1532116901.7,30916,19.69,74084.8,5.23,-7.05,-13.37,0,*40
1532116902.91,30917,19.69,74086.5,5.23,-6.77,-12.65,0,*43
1532116904.1,30918,19.69,74088.8,5.23,-6.69,-12.39,0,*4A
1532116905.32,30919,19.69,74086.0,5.23,-6.47,-11.55,0,*4E
1532116906.57,30920,19.69,74088.5,5.21,-6.27,-11.33,0,*40
1532116907.82,30921,19.69,74086.8,5.21,-6.09,-10.79,0,*42
1532116909.06,30922,19.69,74086.5,5.21,-5.81,-10.57,0,*4E
1532116910.26,30923,19.69,74086.5,5.19,-5.51,-10.89,0,*4A
1532116911.52,30924,19.69,74086.8,5.21,-5.73,-11.63,0,*43
1532116912.77,30925,19.69,74086.0,5.21,-5.89,-11.41,0,*47
1532116913.98,30926,19.69,74088.5,5.21,-6.01,-11.11,0,*42
1532116915.21,30927,19.69,74084.8,5.19,-5.93,-10.89,0,*40
1532116916.45,30928,19.69,74086.0,5.21,-5.89,-11.15,0,*4B
1532116917.67,30929,19.69,74088.5,5.19,-6.13,-11.07,0,*42
1532116918.91,30930,19.69,74086.0,5.21,-6.35,-11.51,0,*46
1532116920.13,30931,19.69,74086.5,5.21,-6.89,-11.41,0,*41
1532116921.33,30932,19.69,74086.0,5.19,-7.11,-11.41,0,*49
1532116922.54,30933,19.69,74086.8,5.19,-7.11,-10.35,0,*4A
1532116923.77,30934,19.69,74084.8,5.21,-6.69,-9.37,0,*72
1532116924.96,30935,19.69,74086.5,5.19,-6.39,-8.37,0,*7C
1532116926.19,30936,19.69,74086.5,5.21,-5.73,-7.19,0,*7A
1532116927.42,30937,19.69,74088.0,5.21,-5.19,-6.69,0,*71
1532116928.63,30938,19.69,74084.3,5.19,-4.85,-6.55,0,*7E
1532116929.84,30939,19.69,74082.5,5.19,-4.69,-6.43,0,*7A
1532116931.02,30940,19.69,74084.5,5.19,-4.57,-6.01,0,*7F
1532116932.25,30941,19.69,74084.8,5.19,-4.21,-5.15,0,*79
1532116933.46,30942,19.69,74082.3,5.19,-3.55,-4.33,0,*7B
1532116934.68,30943,19.69,74082.3,5.21,-3.31,-4.29,0,*78
1532116935.87,30944,19.69,74084.5,5.19,-3.27,-4.05,0,*7D
1532116937.06,30945,19.69,74082.5,5.19,-3.15,-3.83,0,*74
1532116938.24,30946,19.69,74084.3,5.19,-3.07,-4.33,0,*78
1532116939.49,30947,19.69,74084.8,5.19,-3.47,-4.69,0,*72
1532116940.72,30948,19.69,74082.3,5.19,-3.79,-5.03,0,*7D
1532116941.96,30949,19.69,74082.5,5.21,-4.01,-5.47,0,*7F
1532116943.15,30950,19.69,74084.8,5.19,-4.21,-5.47,0,*7E
1532116944.38,30951,19.69,74088.0,5.21,-4.41,-5.73,0,*75
1532116945.62,30952,19.69,74084.8,5.19,-4.85,-5.93,0,*7B
1532116946.87,30953,19.69,74084.0,5.21,-4.93,-5.89,0,*7D
1532116948.1,30954,19.69,74084.8,5.21,-4.99,-5.81,0,*78
1532116949.32,30955,19.69,74084.5,5.19,-5.03,-5.51,0,*7D
1532116950.58,30956,19.69,74084.5,5.21,-4.77,-5.07,0,*74
1532116951.77,30957,19.69,74082.5,5.19,-4.33,-4.57,0,*7A
1532116952.97,30958,19.69,74084.0,5.19,-3.83,-4.25,0,*7C
1532116954.21,30959,19.69,74084.0,5.21,-4.13,-4.81,0,*76
1532116955.42,30960,19.69,74086.0,5.19,-4.85,-5.35,0,*76
1532116956.65,30961,19.69,74084.0,5.19,-4.93,-4.73,0,*73
1532116957.83,30962,19.69,74080.8,5.19,-4.45,-3.79,0,*76
1532116959.04,30963,19.69,74084.5,5.21,-3.79,-2.87,0,*74
1532116960.26,30964,19.69,74086.5,5.19,-2.71,-1.75,0,*7F
1532116961.45,30965,19.69,74080.8,5.19,-2.27,-1.17,0,*79
1532116962.66,30966,19.69,74082.3,5.21,-1.75,-0.41,0,*47
1532116963.91,30967,19.69,74082.0,5.21,-1.05,0.37,0,*6D
1532116965.11,30968,19.69,74082.8,5.21,0.01,1.29,0,*74
1532116966.31,30969,19.69,74080.8,5.19,0.55,1.79,0,*4A
1532116967.52,30970,19.69,74082.3,5.19,1.17,2.35,0,*7E
1532116968.77,30971,19.69,74080.3,5.21,1.71,2.77,0,*72
1532116970.0,30972,19.69,74084.3,5.19,1.97,3.11,0,*73
1532116971.2,30973,19.69,74086.0,5.19,2.35,3.45,0,*78
1532116972.4,30974,19.69,74084.5,5.21,2.95,3.93,0,*75
1532116973.6,30975,19.69,74084.5,5.19,3.45,4.19,0,*76
1532116974.8,30976,19.69,74086.5,5.19,3.71,4.27,0,*7F
1532116976.0,30977,19.69,74084.3,5.21,3.93,4.49,0,*71
1532116977.17,30978,19.69,74080.8,5.23,4.27,4.49,0,*74
1532116978.35,30979,19.69,74082.8,5.23,4.37,4.49,0,*74
1532116979.52,30980,19.69,74080.5,5.23,4.49,4.41,0,*73
1532116980.7,30981,19.69,74080.3,5.25,4.41,4.41,0,*7C
1532116981.87,30982,19.69,74082.3,5.23,4.41,4.49,0,*71
1532116983.05,30983,19.69,74082.3,5.23,4.41,4.41,0,*78
1532116984.23,30984,19.69,74082.8,5.25,4.33,4.45,0,*78
1532116985.41,30985,19.69,74082.3,5.23,4.37,4.49,0,*77
1532116986.58,30986,19.69,74084.3,5.23,4.37,4.49,0,*74
1532116987.77,30987,19.69,74086.5,5.25,4.33,4.57,0,*78
1532116988.97,30988,19.69,74088.5,5.23,4.37,4.67,0,*76
1532116990.18,30989,19.69,74088.3,5.25,4.53,4.79,0,*7C
1532116991.39,30990,19.69,74088.5,5.25,4.53,4.79,0,*74
1532116992.59,30991,19.69,74086.8,5.25,4.59,4.81,0,*78
1532116993.79,30992,19.69,74090.0,5.25,4.67,4.81,0,*76
1532116994.99,30993,19.69,74086.5,5.29,4.85,4.93,0,*74
1532116996.2,30994,19.69,74086.5,5.29,4.85,4.97,0,*77
1532116997.4,30995,19.69,74086.3,5.29,4.85,4.97,0,*76
1532116998.66,30996,19.69,74084.8,5.31,4.93,4.97,0,*7B
1532116999.92,30997,19.69,74086.0,5.31,4.93,4.97,0,*7A
1532117001.15,30998,19.69,74086.8,5.31,4.85,4.93,0,*76
1532117002.38,30999,19.69,74086.8,5.29,4.93,4.97,0,*7D
1532117003.64,31000,19.69,74086.5,5.35,4.97,5.01,0,*72
1532117004.87,31001,19.69,74082.8,5.33,5.01,4.97,0,*75
1532117006.11,31002,19.69,74080.3,5.33,4.93,4.93,0,*78
1532117007.36,31003,19.69,74090.0,5.31,4.97,4.97,0,*7B
1532117008.59,31004,19.69,74086.3,5.33,4.97,4.97,0,*7E
1532117009.85,31005,19.69,74084.8,5.31,4.97,4.97,0,*7D
1532117011.09,31006,19.69,74076.8,5.31,4.97,5.07,0,*76
1532117012.34,31007,19.69,74082.3,5.31,4.97,5.05,0,*75
1532117013.6,31008,19.69,74082.3,5.31,4.97,4.97,0,*70
1532117014.83,31009,19.69,74080.0,5.33,4.97,4.97,0,*73
1532117016.06,31010,19.69,74076.5,5.33,4.97,4.97,0,*7B
1532117017.29,31011,19.69,74078.8,5.33,4.97,4.97,0,*7A
1532117018.49,31012,19.69,74082.0,5.33,4.97,4.89,0,*76
1532117019.66,31013,19.69,74080.5,5.33,4.89,4.89,0,*78
1532117020.87,31014,19.69,74078.5,5.35,4.85,4.85,0,*79
1532117022.04,31015,19.69,74086.3,5.33,4.85,4.89,0,*72
1532117023.24,31016,19.69,74082.8,5.33,4.85,4.97,0,*7E
1532117024.41,31017,19.69,74082.0,5.33,4.85,4.89,0,*70
1532117025.62,31018,19.69,74082.8,5.35,4.89,4.89,0,*75
1532117026.79,31019,19.69,74082.3,5.33,4.85,4.89,0,*7E
1532117028.03,31020,19.69,74084.8,5.35,4.89,5.01,0,*7F
1532117029.2,31021,19.69,74088.3,5.33,4.89,4.89,0,*79
1532117030.4,31022,19.69,74084.5,5.35,4.85,4.89,0,*70
1532117031.58,31023,19.69,74084.0,5.33,4.85,4.85,0,*7B
1532117032.81,31024,19.69,74084.8,5.35,4.85,5.01,0,*77
1532117034.05,31025,19.69,74080.3,5.37,4.93,5.01,0,*73
1532117035.29,31026,19.69,74086.8,5.35,4.89,4.97,0,*77
1532117036.52,31027,19.69,74084.8,5.35,4.89,4.97,0,*76
1532117037.75,31028,19.69,74084.3,5.37,4.93,5.05,0,*7A
1532117038.99,31029,19.69,74080.5,5.37,4.93,5.01,0,*7F
1532117040.2,31030,19.69,74082.0,5.33,4.85,5.01,0,*74
1532117041.43,31031,19.69,74082.5,5.35,4.89,4.97,0,*71
1532117042.66,31032,19.69,74086.0,5.37,4.93,5.05,0,*71
1532117043.89,31033,19.69,74082.3,5.37,4.93,5.05,0,*70
1532117045.12,31034,19.69,74082.3,5.37,4.93,5.05,0,*77
1532117046.33,31035,19.69,74084.3,5.37,4.89,5.01,0,*79
1532117047.57,31036,19.69,74086.0,5.37,4.93,5.05,0,*75
1532117048.8,31037,19.69,74082.8,5.37,4.93,5.05,0,*74
1532117050.03,31038,19.69,74082.8,5.37,4.93,5.01,0,*7F
1532117051.27,31039,19.69,74080.5,5.37,4.93,5.01,0,*7E
1532117052.5,31040,19.69,74080.8,5.41,4.97,5.05,0,*71
1532117053.73,31041,19.69,74082.0,5.41,4.97,4.97,0,*7A
1532117054.93,31042,19.69,74082.0,5.37,4.93,4.89,0,*73
1532117056.14,31043,19.69,74084.0,5.37,4.89,5.01,0,*78
1532117057.37,31044,19.69,74086.3,5.41,4.93,5.05,0,*71
1532117058.6,31045,19.69,74086.0,5.41,4.93,5.05,0,*70
1532117059.83,31046,19.69,74082.8,5.41,4.93,4.93,0,*7D
1532117061.06,31047,19.69,74084.8,5.41,4.97,4.97,0,*7C
1532117062.26,31048,19.69,74084.3,5.41,4.81,4.97,0,*74
1532117063.47,31049,19.69,74084.5,5.41,4.81,4.93,0,*71
1532117064.67,31050,19.69,74086.3,5.41,4.85,4.93,0,*7D
1532117065.9,31051,19.69,74082.5,5.41,4.93,4.97,0,*7F
1532117067.13,31052,19.69,74086.0,5.41,4.93,4.93,0,*78
1532117068.36,31053,19.69,74086.0,5.41,4.93,4.93,0,*79
1532117069.59,31054,19.69,74084.3,5.41,4.97,4.97,0,*7E
1532117070.83,31055,19.69,74080.8,5.41,4.93,4.97,0,*7B
1532117072.03,31056,19.69,74084.5,5.41,4.85,4.97,0,*7F
1532117073.26,31057,19.69,74084.3,5.41,4.93,4.93,0,*7D
1532117074.46,31058,19.69,74084.0,5.43,4.89,4.89,0,*70
1532117075.63,31059,19.69,74086.8,5.41,4.81,4.85,0,*77
1532117076.8,31060,19.69,74080.3,5.41,4.81,4.81,0,*79
1532117077.98,31061,19.69,74086.5,5.41,4.85,4.85,0,*78
1532117079.15,31062,19.69,74084.3,5.41,4.81,4.85,0,*7F
1532117080.32,31063,19.69,74090.5,5.41,4.85,4.85,0,*7A
1532117081.53,31064,19.69,74084.8,5.41,4.85,4.93,0,*7A
1532117082.76,31065,19.69,74084.3,5.41,4.97,5.01,0,*72
1532117083.96,31066,19.69,74084.5,5.43,4.85,4.89,0,*71
1532117085.19,31067,19.69,74088.5,5.43,4.89,5.01,0,*7D
1532117086.4,31068,19.69,74086.8,5.41,4.85,4.93,0,*76
1532117087.63,31069,19.69,74080.8,5.43,4.85,4.97,0,*71
1532117088.83,31070,19.69,74088.3,5.43,4.85,4.89,0,*76
1532117090.03,31071,19.69,74088.5,5.43,4.89,4.89,0,*7B
1532117091.22,31072,19.69,74088.3,5.43,4.85,4.89,0,*74
1532117092.45,31073,19.69,74088.0,5.43,4.85,4.97,0,*7A
1532117093.65,31074,19.69,74084.0,5.41,4.75,4.85,0,*73
1532117094.88,31075,19.69,74086.3,5.43,4.75,4.89,0,*7C
1532117096.1,31076,19.69,74086.3,5.43,4.79,4.89,0,*73
1532117097.33,31077,19.69,74086.0,5.43,4.75,4.85,0,*72
1532117098.56,31078,19.69,74086.8,5.41,4.71,4.75,0,*74
1532117099.79,31079,19.69,74088.5,5.43,4.75,4.89,0,*70
1532117101.05,31080,19.69,74084.5,5.43,4.75,4.75,0,*75
1532117102.3,31081,19.69,74090.0,5.43,4.75,4.79,0,*78
1532117103.55,31082,19.69,74086.8,5.43,4.75,4.79,0,*7B
1532117104.75,31083,19.69,74086.3,5.45,4.81,4.79,0,*77
1532117105.98,31084,19.69,74084.5,5.45,4.79,4.79,0,*77
1532117107.2,31085,19.69,74086.8,5.45,4.79,4.79,0,*76
1532117108.44,31086,19.69,74086.8,5.43,4.71,4.85,0,*78
1532117109.63,31087,19.69,74086.8,5.45,4.67,4.81,0,*7C
1532117110.83,31088,19.69,74088.5,5.45,4.75,4.81,0,*70
1532117112.03,31089,19.63,74084.3,5.45,4.75,4.89,0,*79
1532117113.26,31090,19.69,74090.5,5.45,4.75,4.93,0,*7A
1532117114.45,31091,19.69,74086.3,5.45,4.75,4.81,0,*78
1532117115.65,31092,19.69,74086.8,5.45,4.79,4.89,0,*7F
1532117116.87,31093,19.69,74088.3,5.49,4.79,4.79,0,*7D
1532117118.07,31094,19.69,74088.5,5.45,4.79,4.81,0,*71
1532117119.24,31095,19.69,74088.0,5.45,4.81,4.81,0,*77
1532117120.43,31096,19.69,74088.8,5.45,4.79,4.81,0,*73
1532117121.63,31097,19.69,74090.3,5.45,4.79,4.81,0,*72
1532117122.82,31098,19.69,74090.3,5.45,4.79,4.81,0,*7D
1532117124.05,31099,19.69,74090.0,5.45,4.75,4.79,0,*77
1532117125.27,31100,19.69,74090.3,5.49,4.75,4.79,0,*7A
1532117126.5,31101,19.69,74090.0,5.45,4.75,4.79,0,*77
1532117127.69,31102,19.69,74090.3,5.49,4.79,4.81,0,*73
1532117128.89,31103,19.63,74084.8,5.45,4.67,4.81,0,*71
1532117130.11,31104,19.69,74088.0,5.49,4.75,4.79,0,*7E
1532117131.34,31105,19.69,74088.3,5.49,4.75,4.79,0,*7F
1532117132.53,31106,19.69,74090.5,5.49,4.75,4.81,0,*7B
1532117133.75,31107,19.69,74088.3,5.49,4.75,4.79,0,*7D
1532117134.95,31108,19.69,74090.0,5.49,4.75,4.89,0,*7D
1532117136.14,31109,19.69,74090.3,5.45,4.75,4.81,0,*78
1532117137.34,31110,19.69,74084.0,5.45,4.75,4.81,0,*70
1532117138.53,31111,19.69,74086.5,5.49,4.79,4.89,0,*79
1532117139.73,31112,19.69,74084.5,5.45,4.75,4.89,0,*7A
1532117140.93,31113,19.69,74090.3,5.49,4.75,4.89,0,*77
1532117142.15,31114,19.69,74090.5,5.45,4.75,4.79,0,*73
1532117143.35,31115,19.69,74088.5,5.49,4.75,4.81,0,*79
1532117144.54,31116,19.69,74086.5,5.49,4.75,4.81,0,*7A
1532117145.73,31117,19.69,74088.3,5.49,4.75,4.89,0,*73
1532117146.93,31118,19.69,74090.8,5.49,4.75,4.81,0,*74
1532117148.13,31119,19.69,74088.5,5.45,4.75,4.89,0,*71
1532117149.35,31120,19.69,74088.0,5.49,4.75,4.93,0,*7C
1532117150.58,31121,19.69,74088.8,5.51,4.79,4.85,0,*7F
1532117151.78,31122,19.69,74092.0,5.51,4.81,4.85,0,*7B
1532117153.0,31123,19.69,74088.8,5.51,4.81,4.97,0,*79
1532117154.23,31124,19.69,74088.8,5.51,4.85,4.93,0,*7E
1532117155.46,31125,19.69,74088.8,5.51,4.85,4.97,0,*7B
1532117156.69,31126,19.69,74090.5,5.51,4.85,4.93,0,*7C
1532117157.92,31127,19.69,74088.0,5.51,4.81,4.97,0,*7D
1532117159.12,31128,19.69,74090.3,5.53,4.85,4.97,0,*74
1532117160.35,31129,19.69,74092.3,5.51,4.81,4.93,0,*77
1532117161.58,31130,19.69,74088.5,5.51,4.81,4.93,0,*7F
1532117162.77,31131,19.69,74088.8,5.53,4.85,4.97,0,*7C
1532117164.0,31132,19.69,74092.8,5.51,4.85,4.93,0,*79
1532117165.23,31133,19.69,74092.8,5.51,4.85,4.93,0,*78
1532117166.46,31134,19.69,74090.5,5.51,4.85,4.97,0,*7B
1532117167.69,31135,19.69,74090.8,5.51,4.85,4.97,0,*7A
1532117168.92,31136,19.69,74090.3,5.51,4.85,4.93,0,*7D
1532117170.12,31137,19.69,74086.8,5.51,4.85,4.85,0,*7B
1532117171.35,31138,19.69,74088.0,5.51,4.85,4.93,0,*73
1532117172.55,31139,19.69,74084.5,5.53,4.85,4.97,0,*74
1532117173.74,31140,19.69,74088.3,5.51,4.81,4.81,0,*7B
1532117174.94,31141,19.63,74086.3,5.51,4.85,4.85,0,*7A
1532117176.14,31142,19.69,74088.8,5.53,4.89,4.97,0,*74
1532117177.37,31143,19.69,74088.0,5.51,4.85,4.93,0,*7F
1532117178.57,31144,19.69,74088.3,5.53,4.89,4.97,0,*72
1532117179.77,31145,19.69,74090.0,5.53,4.89,4.97,0,*73
1532117180.98,31146,19.69,74090.8,5.53,4.89,4.97,0,*70
1532117182.14,31147,19.69,74088.3,5.53,4.85,4.89,0,*72
1532117183.31,31148,19.63,74086.0,5.53,4.89,4.89,0,*71
1532117184.48,31149,19.69,74088.3,5.53,4.89,4.89,0,*70
1532117185.68,31150,19.69,74088.0,5.53,4.85,4.97,0,*7B
1532117186.88,31151,19.69,74088.3,5.53,4.89,4.97,0,*76
1532117188.05,31152,19.69,74090.3,5.53,4.85,4.89,0,*76
1532117189.25,31153,19.69,74084.8,5.53,4.85,5.01,0,*76
1532117190.42,31154,19.69,74084.5,5.53,4.85,4.89,0,*70
1532117191.65,31155,19.69,74090.5,5.53,4.97,5.01,0,*73
1532117192.88,31156,19.69,74086.3,5.53,5.01,5.01,0,*7E
1532117194.11,31157,19.69,74090.0,5.53,4.97,4.97,0,*7F
1532117195.34,31158,19.69,74088.3,5.53,4.97,5.01,0,*7E
1532117196.6,31159,19.69,74086.3,5.57,5.05,5.01,0,*71
1532117197.85,31160,19.69,74086.3,5.57,5.01,5.05,0,*7B
1532117199.11,31161,19.69,74088.5,5.57,4.93,5.01,0,*74
1532117200.32,31162,19.69,74084.5,5.59,4.89,4.93,0,*78
1532117201.52,31163,19.63,74084.0,5.57,4.89,4.89,0,*7C
1532117202.71,31164,19.69,74088.0,5.57,4.89,4.89,0,*7B
1532117203.94,31165,19.69,74086.3,5.57,4.89,4.93,0,*71
1532117205.18,31166,19.69,74086.3,5.59,4.93,4.93,0,*77
1532117206.38,31167,19.69,74090.0,5.59,4.89,4.93,0,*7D
1532117207.64,31168,19.63,74084.0,5.57,4.93,5.05,0,*79
1532117208.87,31169,19.69,74088.0,5.59,4.93,5.01,0,*72
1532117210.13,31170,19.69,74090.0,5.57,5.01,5.01,0,*7E
1532117211.39,31171,19.69,74090.0,5.57,5.01,5.01,0,*7F
1532117212.65,31172,19.69,74090.3,5.57,4.93,5.01,0,*76
1532117213.85,31173,19.69,74090.5,5.57,4.89,4.89,0,*7D
1532117215.07,31174,19.69,74088.0,5.57,4.93,4.89,0,*71
1532117216.27,31175,19.69,74088.8,5.57,4.89,4.89,0,*7B
1532117217.47,31176,19.69,74088.8,5.57,4.89,4.89,0,*78
1532117218.7,31177,19.69,74090.0,5.57,4.89,4.93,0,*72
1532117219.93,31178,19.69,74088.3,5.57,4.89,4.93,0,*7D
1532117221.16,31179,19.63,74086.8,5.57,4.89,4.93,0,*7C
1532117222.36,31180,19.69,74090.0,5.57,4.89,4.89,0,*71
1532117223.59,31181,19.69,74084.8,5.57,4.89,4.93,0,*7B
1532117224.82,31182,19.69,74086.5,5.59,4.93,4.93,0,*7D
1532117226.0,31183,19.69,74084.8,5.59,4.89,4.89,0,*7C
1532117227.19,31184,19.69,74084.5,5.57,4.89,4.89,0,*75
1532117228.37,31185,19.63,74086.0,5.59,4.85,4.89,0,*76
1532117229.59,31186,19.69,74084.5,5.57,4.79,4.85,0,*74
1532117230.79,31187,19.69,74084.0,5.59,4.85,4.79,0,*7B
1532117231.97,31188,19.69,74084.5,5.59,4.85,4.85,0,*77
1532117233.22,31189,19.63,74080.3,5.57,4.75,4.79,0,*74
1532117234.45,31190,19.69,74086.0,5.59,4.75,4.79,0,*72
1532117235.68,31191,19.69,74084.5,5.59,4.75,4.79,0,*73
1532117236.88,31192,19.63,74080.3,5.59,4.79,4.85,0,*7F
1532117238.13,31193,19.69,74082.8,5.57,4.67,4.79,0,*7C
1532117239.38,31194,19.69,74080.0,5.57,4.75,4.79,0,*78
1532117240.61,31195,19.63,74082.8,5.59,4.79,4.79,0,*7B
1532117241.8,31196,19.63,74080.8,5.61,4.81,4.81,0,*73
1532117243.02,31197,19.69,74080.8,5.61,4.79,4.81,0,*75
1532117244.22,31198,19.69,74082.5,5.59,4.75,4.85,0,*79
1532117245.45,31199,19.69,74080.3,5.59,4.75,4.79,0,*7B
1532117246.7,31200,19.69,74080.5,5.57,4.79,4.75,0,*76
1532117247.93,31201,19.69,74082.0,5.59,4.75,4.79,0,*79
1532117249.16,31202,19.69,74082.3,5.59,4.75,4.79,0,*7A
1532117250.39,31203,19.69,74080.3,5.59,4.75,4.79,0,*7B
1532117251.62,31204,19.69,74080.3,5.59,4.75,4.75,0,*70
1532117252.85,31205,19.69,74082.8,5.59,4.63,4.75,0,*76
1532117254.08,31206,19.63,74082.5,5.59,4.79,4.79,0,*72
1532117255.31,31207,19.69,74082.5,5.59,4.75,4.79,0,*7F
1532117256.54,31208,19.69,74084.5,5.59,4.79,4.79,0,*7C
1532117257.76,31209,19.69,74084.5,5.59,4.79,4.79,0,*7D
1532117258.97,31210,19.69,74082.5,5.59,4.67,4.57,0,*76
1532117260.22,31211,19.69,74084.0,5.61,4.59,4.71,0,*75
1532117261.47,31212,19.69,74086.3,5.61,4.67,4.67,0,*7C
1532117262.67,31213,19.69,74084.0,5.59,4.57,4.63,0,*71
1532117263.9,31214,19.69,74084.0,5.59,4.63,4.63,0,*71
1532117265.13,31215,19.69,74086.0,5.61,4.59,4.57,0,*75
1532117266.31,31216,19.69,74084.3,5.59,4.57,4.53,0,*77
1532117267.49,31217,19.69,74086.3,5.59,4.53,4.41,0,*71
1532117268.69,31218,19.69,74084.5,5.61,4.57,4.37,0,*70
1532117269.89,31219,19.63,74084.8,5.61,4.57,4.37,0,*71
1532117271.06,31220,19.63,74086.8,5.59,4.45,4.23,0,*76
1532117272.23,31221,19.69,74088.0,5.59,4.53,4.23,0,*70
1532117273.41,31222,19.69,74084.0,5.59,4.33,4.11,0,*74
1532117274.58,31223,19.63,74086.5,5.59,4.41,4.07,0,*77
1532117275.76,31224,19.69,74084.3,5.59,4.33,3.85,0,*78
1532117276.94,31225,19.63,74086.0,5.59,4.33,3.81,0,*7D
1532117278.14,31226,19.63,74086.0,5.59,4.23,3.71,0,*70
1532117279.31,31227,19.63,74084.0,5.59,4.23,3.59,0,*7B
1532117280.51,31228,19.63,74084.0,5.59,4.19,3.49,0,*7C
1532117281.72,31229,19.69,74086.0,5.59,4.07,3.37,0,*7B
1532117282.92,31230,19.69,74086.8,5.59,4.07,3.15,0,*73
1532117284.13,31231,19.63,74084.5,5.59,3.93,3.03,0,*7F
1532117285.36,31232,19.69,74084.8,5.57,3.81,2.89,0,*72
1532117286.6,31233,19.69,74084.8,5.61,3.75,2.85,0,*71
1532117287.8,31234,19.63,74082.5,5.59,3.59,2.69,0,*71
1532117289.0,31235,19.63,74084.5,5.59,3.59,2.55,0,*7F
1532117290.22,31236,19.69,74086.5,5.59,3.49,2.43,0,*7A
1532117291.42,31237,19.63,74084.3,5.59,3.37,2.31,0,*77
1532117292.59,31238,19.69,74084.8,5.59,3.25,2.27,0,*7C
1532117293.82,31239,19.63,74086.0,5.59,3.15,2.21,0,*78
1532117295.05,31240,19.63,74086.8,5.57,2.91,2.09,0,*7F
1532117296.27,31241,19.69,74086.3,5.59,2.81,1.97,0,*75
1532117297.49,31242,19.69,74086.3,5.59,2.69,1.85,0,*73
1532117298.69,31243,19.63,74084.0,5.59,2.65,1.93,0,*79
1532117299.89,31244,19.63,74084.5,5.59,2.65,1.97,0,*7A
1532117301.11,31245,19.69,74090.3,5.59,2.51,1.97,0,*7C
1532117302.34,31246,19.63,74084.0,5.59,2.39,1.97,0,*71
1532117303.54,31247,19.63,74084.5,5.59,2.27,1.85,0,*7C
1532117304.78,31248,19.63,74084.3,5.59,2.17,1.85,0,*70
1532117306.03,31249,19.63,74086.0,5.57,2.17,1.85,0,*7F
1532117307.23,31250,19.69,74084.5,5.59,2.05,1.79,0,*79
1532117308.47,31251,19.63,74084.8,5.59,1.97,1.85,0,*73
1532117309.71,31252,19.63,74084.5,5.57,1.97,1.93,0,*79
1532117310.94,31253,19.69,74086.3,5.59,1.93,1.85,0,*75
1532117312.19,31254,19.69,74084.5,5.57,1.93,1.85,0,*7C
1532117313.41,31255,19.69,74086.3,5.59,2.09,1.93,0,*74
1532117314.65,31256,19.63,74082.3,5.59,2.17,1.85,0,*7F
1532117315.87,31257,19.63,74086.8,5.59,2.17,1.59,0,*7F
1532117317.12,31258,19.63,74082.3,5.57,2.17,1.47,0,*71
1532117318.37,31259,19.63,74086.0,5.57,2.17,1.43,0,*74
1532117319.61,31260,19.63,74086.0,5.57,2.05,1.55,0,*7A
1532117320.86,31261,19.63,74084.8,5.57,2.09,1.71,0,*71
1532117322.06,31262,19.69,74084.8,5.59,2.09,1.83,0,*71
1532117323.28,31263,19.63,74084.8,5.59,2.21,1.93,0,*7B
1532117324.52,31264,19.63,74086.8,5.57,2.21,1.93,0,*72
1532117325.71,31265,19.69,74084.3,5.59,2.31,1.97,0,*78